Regional Weather Roundup
Issued by NWS Albany, NY

Home | Current Version | Previous Version | Text Only | Print | Product List | Glossary On
Versions: 1 2 3 4 5 6 7 8 9 10 11 12 13 14 15 16 17 18 19 20 21 22 23 24 25 26 27 28 29 30 31 32 33 34 35 36 37 38 39 40 41 42 43 44 45 46 47 48 49 50
632
ASUS41 KALY 242010
RWRALY

NEW YORK STATE HOURLY WEATHER ROUNDUP
NATIONAL WEATHER SERVICE ALBANY NY
400 PM EDT SUN JUL 24 2016

NOTE: "FAIR" INDICATES FEW OR NO CLOUDS BELOW 12,000 FEET WITH NO
SIGNIFICANT WEATHER AND/OR NO OBSTRUCTIONS TO VISIBILITY.

NYZ032-033-038>043-046>054-057>066-NYZ062>081-082-084-242100-
EAST


CITY           SKY/WX    TMP DP  RH WIND       PRES   REMARKS
ALBANY         PTSUNNY   86  58  38 NE6       29.95F
GLENS FALLS    MOSUNNY   81  63  54 NE5       29.96S
POUGHKEEPSIE   MOSUNNY   93  56  28 VRB3      29.92F HX  91
NEWBURGH       MOSUNNY   93  55  27 VRB6      29.95F HX  91
MONTGOMERY     MOSUNNY   93  56  28 VRB6      29.93F HX  91
WHITE PLAINS   MOSUNNY   91  55  29 CALM      29.93F
ISLIP          PTSUNNY   83  63  50 S15       29.95F
NEW YORK CITY  PTSUNNY   88  63  43 S17       29.93S
CENTRAL PARK   SUNNY     89  64  43 VRB5      29.95F HX  90
$$

NYZ005>009-017-018-044>046-055-056-242100-
CENTRAL


CITY           SKY/WX    TMP DP  RH WIND       PRES   REMARKS
FULTON         CLOUDY    85  58  39 N9        29.98F
SYRACUSE       PTSUNNY   84  58  40 NW9       29.96F
ROME           SUNNY     84  61  45 SW5       29.97F
ELMIRA         MOSUNNY   93  54  26 SW6       29.94F HX  91
BINGHAMTON     MOSUNNY   87  54  32 CALM      30.00F
MONTICELLO     SUNNY     86  57  37 NW8       30.02S
$$

NYZ026>034-041>043-087-242100-
NORTH


CITY           SKY/WX    TMP DP  RH WIND       PRES   REMARKS
WATERTOWN      SUNNY     83  52  34 W9        29.96F
FORT DRUM      NOT AVBL
MASSENA        SUNNY     78  54  43 NW5       29.98F
SARANAC LAKE   SUNNY     77  47  34 VRB5      30.00F
PLATTSBURGH    PTSUNNY   73  58  59 E8        29.97F
$$

NYZ001>004-010>016-019>021-085-242100-
WEST


CITY           SKY/WX    TMP DP  RH WIND       PRES   REMARKS
NIAGARA FALLS  CLOUDY    87  56  34 SW8       29.95S
BUFFALO        CLOUDY    85  58  39 SW7       29.96S
DUNKIRK        CLOUDY    82  64  54 NW5       29.96F
JAMESTOWN      CLOUDY    81  61  50 S5        30.03S
WELLSVILLE     MOSUNNY   87  46  24 W9        30.05S
ROCHESTER      PTSUNNY   85  65  51 NE10      29.96F
PENN YAN       CLOUDY    88  59  37 VRB5      29.98F
$$

             KEY
       WCI = WIND CHILL INDEX
       VSB = VISIBILITY
       HX  = HEAT INDEX
$$




USA.gov is the U.S. government's official web portal to all federal, state and local government web resources and services.